| time (UTC) | temp C | wind direction | speed KPH | gust KPH | rain 1hr cm | rain 24hr cm | rain mn cm | humidity % | barometer mb |
| 20260506231506 | 18 | 164 | 4.8 | 17.7 | 0.00 | 0.33 | 0.33 | 87 | 1008.6 |
| 20260506231006 | 18 | 167 | 4.8 | 17.7 | 0.00 | 0.33 | 0.33 | 87 | 1008.6 |
| 20260506230506 | 18 | 121 | 4.8 | 19.3 | 0.00 | 0.33 | 0.33 | 87 | 1008.5 |
| 20260506230007 | 18 | 167 | 3.2 | 19.3 | 0.00 | 0.33 | 0.33 | 87 | 1008.5 |
| 20260506225732 | 18 | 163 | 4.8 | 14.5 | 0.00 | 0.33 | 0.33 | 88 | 1008.4 |
| 20260506225004 | 18 | 140 | 4.8 | 14.5 | 0.00 | 0.33 | 0.33 | 88 | 1008.5 |
| 20260506224948 | 18 | 139 | 4.8 | 14.5 | 0.00 | 0.33 | 0.33 | 88 | 1008.5 |
| 20260506224003 | 18 | 191 | 6.4 | 22.5 | 0.00 | 0.33 | 0.33 | 88 | 1008.6 |
| 20260506223504 | 18 | 188 | 6.4 | 22.5 | 0.00 | 0.33 | 0.33 | 87 | 1008.5 |
| 20260506223452 | 18 | 132 | 6.4 | 19.3 | 0.00 | 0.33 | 0.33 | 87 | 1008.5 |
| 20260506222726 | 18 | 157 | 4.8 | 22.5 | 0.00 | 0.33 | 0.33 | 86 | 1008.5 |
| 20260506222003 | 18 | 171 | 4.8 | 22.5 | 0.00 | 0.33 | 0.33 | 86 | 1008.5 |
| 20260506221504 | 18 | 144 | 4.8 | 19.3 | 0.00 | 0.33 | 0.33 | 86 | 1008.5 |
| 20260506221004 | 18 | 177 | 4.8 | 16.1 | 0.00 | 0.33 | 0.33 | 86 | 1008.4 |
| 20260506220506 | 18 | 176 | 6.4 | 16.1 | 0.00 | 0.33 | 0.33 | 86 | 1008.2 |
| 20260506220000 | 19 | 180 | 6.4 | 16.1 | 0.00 | 0.33 | 0.33 | 86 | 1008.2 |
| 20260506215717 | 19 | 142 | 6.4 | 17.7 | 0.00 | 0.33 | 0.33 | 86 | 1008.1 |
| 20260506214944 | 19 | 128 | 6.4 | 19.3 | 0.00 | 0.33 | 0.33 | 86 | 1008.1 |
| 20260506214438 | 19 | 119 | 6.4 | 19.3 | 0.00 | 0.33 | 0.33 | 86 | 1008.2 |
| 20260506213928 | 19 | 163 | 4.8 | 20.9 | 0.00 | 0.33 | 0.33 | 86 | 1008.1 |
| 20260506213422 | 19 | 155 | 6.4 | 20.9 | 0.00 | 0.33 | 0.33 | 86 | 1008.1 |
| 20260506212916 | 19 | 136 | 4.8 | 14.5 | 0.00 | 0.33 | 0.33 | 86 | 1008.1 |
| 20260506212407 | 19 | 149 | 3.2 | 14.5 | 0.00 | 0.33 | 0.33 | 86 | 1007.9 |
| 20260506211900 | 18 | 161 | 3.2 | 14.5 | 0.00 | 0.33 | 0.33 | 87 | 1007.9 |
| 20260506211618 | 18 | 157 | 3.2 | 14.5 | 0.00 | 0.33 | 0.33 | 87 | 1007.9 |
| 20260506210856 | 18 | 95 | 3.2 | 11.3 | 0.00 | 0.33 | 0.33 | 87 | 1007.9 |
| 20260506210354 | 18 | 171 | 4.8 | 19.3 | 0.00 | 0.33 | 0.33 | 87 | 1008.0 |
| 20260506205854 | 18 | 178 | 6.4 | 19.3 | 0.00 | 0.33 | 0.33 | 87 | 1007.9 |
| 20260506205354 | 18 | 192 | 8.0 | 19.3 | 0.00 | 0.33 | 0.33 | 88 | 1007.9 |
| 20260506204852 | 18 | 161 | 6.4 | 20.9 | 0.00 | 0.33 | 0.33 | 87 | 1007.9 |
| 20260506204353 | 18 | 182 | 6.4 | 20.9 | 0.00 | 0.33 | 0.33 | 87 | 1007.9 |
| 20260506203853 | 18 | 218 | 9.7 | 19.3 | 0.00 | 0.33 | 0.33 | 87 | 1007.9 |
| 20260506203627 | 18 | 171 | 9.7 | 22.5 | 0.00 | 0.33 | 0.33 | 87 | 1007.9 |
| 20260506202853 | 18 | 156 | 9.7 | 27.4 | 0.00 | 0.33 | 0.33 | 87 | 1007.9 |
| 20260506202353 | 18 | 158 | 8.0 | 27.4 | 0.00 | 0.33 | 0.33 | 87 | 1007.8 |
| 20260506201854 | 18 | 116 | 8.0 | 24.1 | 0.00 | 0.33 | 0.33 | 87 | 1007.8 |
| 20260506201620 | 18 | 187 | 9.7 | 22.5 | 0.00 | 0.33 | 0.33 | 88 | 1007.8 |
| 20260506200854 | 18 | 158 | 8.0 | 20.9 | 0.00 | 0.33 | 0.33 | 88 | 1007.7 |
| 20260506200354 | 18 | 177 | 8.0 | 20.9 | 0.00 | 0.33 | 0.33 | 88 | 1007.7 |
| 20260506195853 | 18 | 151 | 6.4 | 27.4 | 0.00 | 0.33 | 0.33 | 88 | 1007.8 |
| 20260506195353 | 18 | 196 | 8.0 | 27.4 | 0.00 | 0.33 | 0.33 | 89 | 1007.8 |
| 20260506194852 | 18 | 138 | 11.3 | 27.4 | 0.00 | 0.33 | 0.33 | 88 | 1007.8 |
| 20260506194353 | 18 | 166 | 11.3 | 27.4 | 0.00 | 0.33 | 0.33 | 88 | 1008.0 |
| 20260506193853 | 18 | 115 | 11.3 | 32.2 | 0.00 | 0.33 | 0.33 | 88 | 1008.1 |
| 20260506193353 | 18 | 162 | 9.7 | 32.2 | 0.00 | 0.33 | 0.33 | 88 | 1008.2 |
| 20260506192853 | 18 | 302 | 9.7 | 25.7 | 0.00 | 0.33 | 0.33 | 90 | 1008.0 |
| 20260506192352 | 18 | 149 | 9.7 | 25.7 | 0.00 | 0.33 | 0.33 | 90 | 1008.1 |
| 20260506191852 | 17 | 145 | 9.7 | 29.0 | 0.00 | 0.33 | 0.33 | 92 | 1008.3 |
| 20260506191353 | 17 | 175 | 9.7 | 29.0 | 0.00 | 0.33 | 0.33 | 91 | 1008.1 |
| 20260506190853 | 17 | 155 | 9.7 | 29.0 | 0.00 | 0.33 | 0.33 | 92 | 1008.4 |
| 20260506190620 | 17 | 159 | 8.0 | 22.5 | 0.00 | 0.33 | 0.33 | 92 | 1008.4 |
| 20260506190111 | 16 | 155 | 8.0 | 22.5 | 0.00 | 0.33 | 0.33 | 92 | 1008.4 |
| 20260506185953 | 16 | 196 | 8.0 | 22.5 | 0.00 | 0.33 | 0.33 | 92 | 1008.4 |
| 20260506184855 | 16 | 168 | 9.7 | 25.7 | 0.00 | 0.33 | 0.33 | 92 | 1008.5 |
| 20260506184354 | 16 | 163 | 9.7 | 25.7 | 0.00 | 0.33 | 0.33 | 92 | 1008.6 |
| 20260506184340 | 16 | 164 | 9.7 | 24.1 | 0.00 | 0.33 | 0.33 | 92 | 1008.5 |
| 20260506183353 | 16 | 173 | 9.7 | 25.7 | 0.00 | 0.33 | 0.33 | 92 | 1008.6 |
| 20260506182853 | 16 | 140 | 6.4 | 25.7 | 0.00 | 0.33 | 0.33 | 92 | 1008.6 |
| 20260506182354 | 16 | 180 | 8.0 | 24.1 | 0.00 | 0.33 | 0.33 | 92 | 1008.7 |
| 20260506181846 | 16 | 134 | 11.3 | 29.0 | 0.00 | 0.33 | 0.33 | 92 | 1008.6 |
| 20260506181605 | 16 | 159 | 12.9 | 29.0 | 0.00 | 0.33 | 0.33 | 92 | 1008.8 |
| 20260506180845 | 16 | 197 | 11.3 | 25.7 | 0.00 | 0.33 | 0.33 | 92 | 1008.8 |
| 20260506180344 | 16 | 195 | 11.3 | 33.8 | 0.00 | 0.33 | 0.33 | 92 | 1008.9 |
| 20260506175846 | 16 | 129 | 11.3 | 33.8 | 0.00 | 0.33 | 0.33 | 92 | 1008.8 |
| 20260506175344 | 16 | 161 | 12.9 | 33.8 | 0.00 | 0.33 | 0.33 | 92 | 1008.7 |
| 20260506174847 | 16 | 138 | 12.9 | 33.8 | 0.00 | 0.33 | 0.33 | 92 | 1008.8 |
| 20260506174348 | 16 | 219 | 12.9 | 27.4 | 0.00 | 0.33 | 0.33 | 93 | 1008.7 |
| 20260506173848 | 16 | 191 | 12.9 | 27.4 | 0.00 | 0.33 | 0.33 | 93 | 1008.8 |
| 20260506173337 | 16 | 160 | 14.5 | 35.4 | 0.00 | 0.33 | 0.33 | 93 | 1008.7 |
| 20260506173056 | 16 | 172 | 12.9 | 35.4 | 0.00 | 0.33 | 0.33 | 92 | 1008.9 |
| 20260506172549 | 16 | 115 | 11.3 | 38.6 | 0.00 | 0.33 | 0.33 | 92 | 1008.9 |
| 20260506171813 | 16 | 92 | 14.5 | 38.6 | 0.00 | 0.33 | 0.33 | 92 | 1008.9 |
| 20260506171524 | 16 | 142 | 12.9 | 35.4 | 0.00 | 0.33 | 0.33 | 92 | 1008.8 |
| 20260506171021 | 16 | 141 | 12.9 | 35.4 | 0.00 | 0.33 | 0.33 | 93 | 1008.8 |
| 20260506170511 | 16 | 173 | 14.5 | 32.2 | 0.00 | 0.33 | 0.33 | 93 | 1008.9 |
| 20260506165744 | 16 | 146 | 12.9 | 29.0 | 0.03 | 0.33 | 0.33 | 93 | 1009.0 |
| 20260506165458 | 16 | 116 | 11.3 | 38.6 | 0.03 | 0.33 | 0.33 | 93 | 1009.0 |
| 20260506164728 | 16 | 153 | 11.3 | 38.6 | 0.05 | 0.33 | 0.33 | 93 | 1009.0 |
| 20260506164222 | 16 | 142 | 12.9 | 38.6 | 0.05 | 0.33 | 0.33 | 93 | 1009.0 |
| 20260506163716 | 16 | 288 | 14.5 | 33.8 | 0.08 | 0.33 | 0.33 | 93 | 1009.0 |
| 20260506163206 | 16 | 142 | 14.5 | 35.4 | 0.08 | 0.33 | 0.33 | 93 | 1009.0 |
| 20260506162659 | 16 | 135 | 12.9 | 35.4 | 0.10 | 0.33 | 0.33 | 94 | 1009.1 |
| 20260506162153 | 16 | 128 | 12.9 | 33.8 | 0.10 | 0.33 | 0.33 | 93 | 1009.1 |
| 20260506161643 | 16 | 146 | 14.5 | 30.6 | 0.13 | 0.33 | 0.33 | 93 | 1009.2 |
| 20260506161137 | 16 | 110 | 14.5 | 29.0 | 0.13 | 0.33 | 0.33 | 93 | 1009.2 |
| 20260506160632 | 16 | 171 | 12.9 | 27.4 | 0.15 | 0.33 | 0.33 | 93 | 1009.2 |
| 20260506160121 | 16 | 109 | 11.3 | 32.2 | 0.15 | 0.33 | 0.33 | 93 | 1009.0 |
| 20260506160105 | 16 | 105 | 9.7 | 32.2 | 0.15 | 0.30 | 0.30 | 93 | 1009.2 |
| 20260506155109 | 15 | 156 | 9.7 | 24.1 | 0.15 | 0.30 | 0.30 | 93 | 1009.7 |
| 20260506154559 | 15 | 175 | 9.7 | 24.1 | 0.15 | 0.28 | 0.28 | 93 | 1009.8 |
| 20260506154054 | 15 | 135 | 8.0 | 25.7 | 0.18 | 0.28 | 0.28 | 93 | 1009.9 |
| 20260506153548 | 16 | 180 | 8.0 | 25.7 | 0.15 | 0.25 | 0.25 | 93 | 1010.1 |
| 20260506153037 | 15 | 161 | 9.7 | 27.4 | 0.18 | 0.25 | 0.25 | 93 | 1010.2 |
| 20260506152531 | 15 | 135 | 11.3 | 29.0 | 0.18 | 0.23 | 0.23 | 92 | 1010.2 |
| 20260506152025 | 15 | 141 | 11.3 | 29.0 | 0.15 | 0.20 | 0.20 | 92 | 1010.2 |
| 20260506151515 | 15 | 229 | 9.7 | 22.5 | 0.15 | 0.20 | 0.20 | 92 | 1010.3 |
| 20260506151010 | 15 | 190 | 8.0 | 22.5 | 0.18 | 0.20 | 0.20 | 92 | 1010.2 |
| 20260506150504 | 15 | 157 | 8.0 | 20.9 | 0.15 | 0.18 | 0.18 | 91 | 1010.1 |
| 20260506145954 | 15 | 141 | 9.7 | 20.9 | 0.18 | 0.18 | 0.18 | 91 | 1009.9 |
| 20260506145715 | 15 | 178 | 9.7 | 24.1 | 0.15 | 0.15 | 0.15 | 90 | 1009.9 |
| 20260506145212 | 15 | 118 | 8.0 | 24.1 | 0.13 | 0.13 | 0.15 | 90 | 1009.9 |
| 20260506144431 | 16 | 152 | 8.0 | 25.7 | 0.10 | 0.10 | 0.10 | 90 | 1009.9 |
| 20260506143926 | 16 | 136 | 8.0 | 25.7 | 0.10 | 0.10 | 0.10 | 89 | 1009.8 |
| 20260506143420 | 16 | 105 | 8.0 | 19.3 | 0.08 | 0.08 | 0.10 | 89 | 1010.0 |
| 20260506142910 | 16 | 177 | 8.0 | 24.1 | 0.08 | 0.08 | 0.08 | 89 | 1010.2 |
| 20260506142403 | 16 | 160 | 8.0 | 24.1 | 0.05 | 0.05 | 0.05 | 89 | 1010.2 |
| 20260506141857 | 16 | 166 | 8.0 | 24.1 | 0.05 | 0.05 | 0.05 | 89 | 1010.1 |
| 20260506141347 | 16 | 93 | 9.7 | 29.0 | 0.03 | 0.03 | 0.05 | 89 | 1010.1 |
| 20260506140842 | 16 | 151 | 8.0 | 29.0 | 0.03 | 0.03 | 0.03 | 87 | 1010.1 |
| 20260506140335 | 16 | 163 | 8.0 | 24.1 | 0.00 | 0.00 | 0.03 | 87 | 1010.1 |
| 20260506135826 | 16 | 70 | 8.0 | 24.1 | 0.00 | 0.00 | 0.00 | 85 | 1010.2 |
| 20260506135319 | 17 | 157 | 8.0 | 30.6 | 0.00 | 0.00 | 0.00 | 84 | 1010.2 |
| 20260506134814 | 17 | 175 | 9.7 | 30.6 | 0.00 | 0.00 | 0.00 | 84 | 1010.1 |
| 20260506134303 | 17 | 175 | 11.3 | 32.2 | 0.00 | 0.00 | 0.00 | 83 | 1010.1 |
| 20260506133757 | 17 | 157 | 12.9 | 32.2 | 0.00 | 0.00 | 0.00 | 83 | 1009.9 |
| 20260506133251 | 17 | 152 | 11.3 | 27.4 | 0.00 | 0.00 | 0.00 | 83 | 1009.9 |
| 20260506132748 | 17 | 140 | 11.3 | 30.6 | 0.00 | 0.00 | 0.00 | 83 | 1010.0 |
| 20260506132248 | 17 | 129 | 11.3 | 30.6 | 0.00 | 0.00 | 0.00 | 83 | 1009.9 |
| 20260506131748 | 17 | 132 | 8.0 | 30.6 | 0.00 | 0.00 | 0.00 | 83 | 1009.9 |
| 20260506131247 | 17 | 167 | 11.3 | 30.6 | 0.00 | 0.00 | 0.00 | 83 | 1009.9 |
| 20260506130749 | 17 | 111 | 12.9 | 35.4 | 0.00 | 0.00 | 0.00 | 83 | 1010.0 |
| 20260506130505 | 17 | 161 | 12.9 | 35.4 | 0.00 | 0.00 | 0.00 | 82 | 1010.1 |
| 20260506125748 | 17 | 126 | 12.9 | 29.0 | 0.00 | 0.00 | 0.00 | 82 | 1010.1 |
| 20260506125248 | 17 | 154 | 14.5 | 30.6 | 0.00 | 0.00 | 0.00 | 82 | 1010.2 |
| 20260506124748 | 17 | 142 | 14.5 | 38.6 | 0.00 | 0.00 | 0.00 | 82 | 1010.2 |
| 20260506124249 | 17 | 142 | 14.5 | 38.6 | 0.00 | 0.00 | 0.00 | 82 | 1010.4 |
| 20260506124012 | 17 | 123 | 12.9 | 37.0 | 0.00 | 0.00 | 0.00 | 82 | 1010.4 |
| 20260506123248 | 17 | 170 | 11.3 | 33.8 | 0.00 | 0.00 | 0.00 | 81 | 1010.3 |
| 20260506123009 | 17 | 105 | 14.5 | 35.4 | 0.00 | 0.00 | 0.00 | 81 | 1010.4 |
| 20260506122243 | 17 | 126 | 14.5 | 35.4 | 0.00 | 0.00 | 0.00 | 81 | 1010.2 |
| 20260506121737 | 17 | 129 | 16.1 | 33.8 | 0.00 | 0.00 | 0.00 | 82 | 1010.3 |
| 20260506121227 | 17 | 136 | 14.5 | 32.2 | 0.00 | 0.00 | 0.00 | 81 | 1010.3 |
| 20260506120720 | 17 | 153 | 14.5 | 33.8 | 0.00 | 0.00 | 0.00 | 82 | 1010.3 |
| 20260506120214 | 17 | 194 | 14.5 | 40.2 | 0.00 | 0.00 | 0.00 | 81 | 1010.2 |
| 20260506115706 | 17 | 157 | 12.9 | 40.2 | 0.00 | 0.00 | 0.00 | 81 | 1010.1 |
| 20260506115206 | 17 | 194 | 12.9 | 37.0 | 0.00 | 0.00 | 0.00 | 81 | 1010.0 |
| 20260506114706 | 17 | 143 | 16.1 | 37.0 | 0.00 | 0.00 | 0.00 | 81 | 1010.0 |
| 20260506114423 | 17 | 134 | 14.5 | 35.4 | 0.00 | 0.00 | 0.00 | 81 | 1009.9 |
| 20260506113705 | 17 | 146 | 12.9 | 38.6 | 0.00 | 0.00 | 0.00 | 81 | 1009.8 |
| 20260506113207 | 17 | 153 | 16.1 | 38.6 | 0.00 | 0.00 | 0.00 | 81 | 1009.9 |
| 20260506112929 | 17 | 113 | 14.5 | 33.8 | 0.00 | 0.00 | 0.00 | 82 | 1009.8 |
| 20260506112205 | 17 | 173 | 12.9 | 33.8 | 0.00 | 0.00 | 0.00 | 81 | 1009.6 |
| 20260506111931 | 17 | 106 | 14.5 | 37.0 | 0.00 | 0.00 | 0.00 | 81 | 1009.8 |
| 20260506111428 | 17 | 175 | 14.5 | 37.0 | 0.00 | 0.00 | 0.00 | 81 | 1009.7 |
| 20260506110706 | 17 | 220 | 11.3 | 27.4 | 0.00 | 0.00 | 0.00 | 82 | 1009.8 |
| 20260506110429 | 17 | 196 | 12.9 | 33.8 | 0.00 | 0.00 | 0.00 | 82 | 1009.7 |
| 20260506105705 | 17 | 173 | 14.5 | 33.8 | 0.00 | 0.00 | 0.00 | 82 | 1009.6 |
| 20260506105206 | 17 | 150 | 11.3 | 29.0 | 0.00 | 0.00 | 0.00 | 82 | 1009.6 |
| 20260506104928 | 17 | 123 | 11.3 | 38.6 | 0.00 | 0.00 | 0.00 | 82 | 1009.7 |
| 20260506104414 | 17 | 111 | 14.5 | 37.0 | 0.00 | 0.00 | 0.00 | 82 | 1009.4 |
| 20260506104301 | 17 | 165 | 12.9 | 38.6 | 0.00 | 0.00 | 0.00 | 82 | 1009.6 |
| 20260506103207 | 17 | 111 | 12.9 | 37.0 | 0.00 | 0.00 | 0.00 | 82 | 1009.4 |
| 20260506102703 | 17 | 113 | 12.9 | 35.4 | 0.00 | 0.00 | 0.00 | 82 | 1009.4 |
| 20260506102202 | 17 | 186 | 11.3 | 30.6 | 0.00 | 0.00 | 0.00 | 82 | 1009.4 |
| 20260506101703 | 17 | 182 | 12.9 | 32.2 | 0.00 | 0.00 | 0.00 | 82 | 1009.4 |
| 20260506101201 | 17 | 155 | 12.9 | 32.2 | 0.00 | 0.00 | 0.00 | 82 | 1009.6 |
| 20260506100702 | 17 | 113 | 11.3 | 30.6 | 0.00 | 0.00 | 0.00 | 82 | 1009.4 |
| 20260506100202 | 17 | 200 | 12.9 | 45.1 | 0.00 | 0.00 | 0.00 | 82 | 1009.6 |
| 20260506095701 | 17 | 165 | 12.9 | 45.1 | 0.00 | 0.00 | 0.00 | 82 | 1009.4 |
| 20260506095202 | 17 | 173 | 11.3 | 29.0 | 0.00 | 0.00 | 0.00 | 81 | 1009.4 |
| 20260506094704 | 17 | 137 | 11.3 | 38.6 | 0.00 | 0.00 | 0.00 | 82 | 1009.2 |
| 20260506094158 | 17 | 155 | 11.3 | 38.6 | 0.00 | 0.00 | 0.00 | 81 | 1009.3 |
| 20260506093649 | 17 | 137 | 12.9 | 33.8 | 0.00 | 0.00 | 0.00 | 81 | 1009.4 |
| 20260506093142 | 17 | 132 | 14.5 | 33.8 | 0.00 | 0.00 | 0.00 | 81 | 1009.4 |
| 20260506092636 | 17 | 180 | 12.9 | 30.6 | 0.00 | 0.00 | 0.00 | 80 | 1009.6 |
| 20260506092127 | 17 | 154 | 14.5 | 40.2 | 0.00 | 0.00 | 0.00 | 80 | 1009.6 |
| 20260506092116 | 17 | 106 | 14.5 | 40.2 | 0.00 | 0.00 | 0.00 | 80 | 1009.7 |
| 20260506091341 | 17 | 139 | 12.9 | 29.0 | 0.00 | 0.00 | 0.00 | 80 | 1009.6 |
| 20260506090605 | 17 | 104 | 14.5 | 29.0 | 0.00 | 0.00 | 0.00 | 79 | 1009.6 |
| 20260506090059 | 17 | 152 | 16.1 | 30.6 | 0.00 | 0.00 | 0.00 | 79 | 1009.6 |
| 20260506085553 | 18 | 157 | 12.9 | 30.6 | 0.00 | 0.00 | 0.00 | 79 | 1009.7 |
| 20260506085043 | 18 | 186 | 11.3 | 27.4 | 0.00 | 0.00 | 0.00 | 79 | 1009.6 |
| 20260506084536 | 18 | 104 | 12.9 | 29.0 | 0.00 | 0.00 | 0.00 | 78 | 1009.6 |
| 20260506084031 | 18 | 123 | 11.3 | 30.6 | 0.00 | 0.00 | 0.00 | 78 | 1009.6 |
| 20260506083519 | 18 | 163 | 11.3 | 30.6 | 0.00 | 0.00 | 0.00 | 78 | 1009.7 |
| 20260506083231 | 18 | 164 | 11.3 | 32.2 | 0.00 | 0.00 | 0.00 | 78 | 1009.7 |
| 20260506082730 | 18 | 89 | 12.9 | 33.8 | 0.00 | 0.00 | 0.00 | 78 | 1009.4 |
| 20260506082226 | 18 | 182 | 12.9 | 33.8 | 0.00 | 0.00 | 0.00 | 78 | 1009.7 |
| 20260506081450 | 18 | 121 | 12.9 | 30.6 | 0.00 | 0.00 | 0.00 | 78 | 1009.6 |
| 20260506080944 | 18 | 133 | 11.3 | 30.6 | 0.00 | 0.00 | 0.00 | 78 | 1009.7 |
| 20260506080443 | 18 | 133 | 11.3 | 30.6 | 0.00 | 0.00 | 0.00 | 78 | 1009.6 |
| 20260506073201 | 18 | 174 | 9.7 | 29.0 | 0.00 | 0.00 | 0.00 | 77 | 1009.8 |
| 20260506072443 | 18 | 132 | 9.7 | 29.0 | 0.00 | 0.00 | 0.00 | 77 | 1009.9 |
| 20260506071943 | 18 | 163 | 6.4 | 29.0 | 0.00 | 0.00 | 0.00 | 76 | 1009.9 |
| 20260506071447 | 18 | 155 | 9.7 | 20.9 | 0.00 | 0.00 | 0.00 | 76 | 1009.9 |
| 20260506071440 | 18 | 146 | 11.3 | 22.5 | 0.00 | 0.00 | 0.00 | 76 | 1009.8 |
| 20260506070447 | 18 | 197 | 11.3 | 25.7 | 0.00 | 0.00 | 0.00 | 75 | 1009.9 |
| 20260506062418 | 18 | 140 | 8.0 | 22.5 | 0.00 | 0.00 | 0.00 | 73 | 1010.3 |
| 20260506061918 | 18 | 98 | 9.7 | 22.5 | 0.00 | 0.00 | 0.00 | 73 | 1010.4 |
| 20260506061417 | 18 | 133 | 9.7 | 24.1 | 0.00 | 0.00 | 0.00 | 73 | 1010.3 |
| 20260506060916 | 18 | 132 | 8.0 | 24.1 | 0.00 | 0.00 | 0.00 | 72 | 1010.4 |
| 20260506060422 | 18 | 112 | 9.7 | 22.5 | 0.00 | 0.00 | 0.00 | 71 | 1010.3 |
| 20260506051412 | 19 | 111 | 9.7 | 20.9 | 0.00 | 0.00 | 0.00 | 68 | 1010.8 |
| 20260506051130 | 19 | 118 | 9.7 | 29.0 | 0.00 | 0.00 | 0.00 | 68 | 1010.7 |
| 20260506050412 | 19 | 96 | 8.0 | 29.0 | 0.00 | 0.00 | 0.00 | 68 | 1010.7 |
| 20260506044908 | 19 | 157 | 6.4 | 24.1 | 0.00 | 0.00 | 0.00 | 67 | 1010.8 |
| 20260506044408 | 19 | 82 | 9.7 | 24.1 | 0.00 | 0.00 | 0.00 | 67 | 1010.8 |
| 20260506043907 | 19 | 144 | 9.7 | 24.1 | 0.00 | 0.00 | 0.00 | 67 | 1010.8 |
| 20260506043410 | 19 | 152 | 8.0 | 17.7 | 0.00 | 0.00 | 0.00 | 67 | 1010.8 |
| 20260506042909 | 19 | 145 | 8.0 | 19.3 | 0.00 | 0.00 | 0.00 | 67 | 1010.8 |
| 20260506042412 | 19 | 149 | 8.0 | 22.5 | 0.00 | 0.00 | 0.00 | 67 | 1010.8 |
| 20260506041912 | 19 | 154 | 8.0 | 22.5 | 0.00 | 0.00 | 0.00 | 67 | 1010.9 |
| 20260506041408 | 19 | 146 | 8.0 | 22.5 | 0.00 | 0.00 | 0.00 | 66 | 1010.9 |
| 20260506040907 | 19 | 160 | 8.0 | 22.5 | 0.00 | 0.00 | 0.00 | 66 | 1010.9 |
| 20260506040406 | 19 | 138 | 8.0 | 20.9 | 0.00 | 0.00 | 0.00 | 66 | 1010.9 |
| 20260506035903 | 19 | 128 | 9.7 | 24.1 | 0.00 | 0.00 | 0.00 | 65 | 1010.9 |
| 20260506035405 | 19 | 167 | 9.7 | 24.1 | 0.00 | 0.00 | 0.00 | 65 | 1010.9 |
| 20260506034904 | 19 | 128 | 8.0 | 22.5 | 0.00 | 0.00 | 0.00 | 65 | 1010.8 |
| 20260506034405 | 19 | 200 | 8.0 | 22.5 | 0.00 | 0.00 | 0.00 | 65 | 1010.8 |
| 20260506033904 | 19 | 150 | 8.0 | 22.5 | 0.00 | 0.00 | 0.00 | 65 | 1010.8 |
| 20260506033404 | 19 | 103 | 8.0 | 22.5 | 0.00 | 0.00 | 0.00 | 65 | 1010.8 |
| 20260506032903 | 19 | 188 | 8.0 | 22.5 | 0.00 | 0.00 | 0.00 | 65 | 1010.8 |
| 20260506032404 | 19 | 140 | 6.4 | 19.3 | 0.00 | 0.00 | 0.00 | 65 | 1010.8 |
| 20260506031904 | 19 | 211 | 6.4 | 17.7 | 0.00 | 0.00 | 0.00 | 65 | 1010.8 |
| 20260506031404 | 19 | 130 | 8.0 | 19.3 | 0.00 | 0.00 | 0.00 | 65 | 1010.8 |
| 20260506030904 | 19 | 96 | 8.0 | 19.3 | 0.00 | 0.00 | 0.00 | 65 | 1010.9 |
| 20260506030622 | 20 | 114 | 8.0 | 20.9 | 0.00 | 0.00 | 0.00 | 65 | 1010.8 |
| 20260506025903 | 20 | 142 | 8.0 | 20.9 | 0.00 | 0.00 | 0.00 | 64 | 1010.9 |
| 20260506025405 | 20 | 126 | 8.0 | 24.1 | 0.00 | 0.00 | 0.00 | 64 | 1010.9 |
| 20260506024903 | 20 | 170 | 9.7 | 24.1 | 0.00 | 0.00 | 0.00 | 64 | 1010.9 |
| 20260506024405 | 20 | 112 | 8.0 | 22.5 | 0.00 | 0.00 | 0.00 | 64 | 1011.1 |
| 20260506023904 | 20 | 111 | 8.0 | 22.5 | 0.00 | 0.00 | 0.00 | 64 | 1011.1 |
| 20260506023628 | 20 | 132 | 8.0 | 22.5 | 0.00 | 0.00 | 0.00 | 64 | 1011.1 |
| 20260506022902 | 20 | 101 | 4.8 | 12.9 | 0.00 | 0.00 | 0.00 | 64 | 1011.1 |
| 20260506022623 | 20 | 129 | 6.4 | 19.3 | 0.00 | 0.00 | 0.00 | 63 | 1011.1 |
| 20260506021858 | 20 | 107 | 8.0 | 19.3 | 0.00 | 0.00 | 0.00 | 63 | 1011.0 |
| 20260506021358 | 20 | 118 | 8.0 | 17.7 | 0.00 | 0.00 | 0.00 | 62 | 1011.0 |
| 20260506020858 | 20 | 148 | 8.0 | 19.3 | 0.00 | 0.00 | 0.00 | 62 | 1011.1 |
| 20260506020616 | 20 | 82 | 8.0 | 19.3 | 0.00 | 0.00 | 0.00 | 62 | 1011.0 |
| 20260506015857 | 20 | 135 | 8.0 | 16.1 | 0.00 | 0.00 | 0.00 | 61 | 1011.0 |
| 20260506015401 | 20 | 101 | 6.4 | 16.1 | 0.00 | 0.00 | 0.00 | 61 | 1010.9 |
| 20260506014854 | 20 | 138 | 6.4 | 19.3 | 0.00 | 0.00 | 0.00 | 61 | 1010.8 |
| 20260506014345 | 20 | 143 | 8.0 | 19.3 | 0.00 | 0.00 | 0.00 | 61 | 1010.9 |
| 20260506013840 | 20 | 156 | 8.0 | 25.7 | 0.00 | 0.00 | 0.00 | 60 | 1010.8 |
| 20260506013333 | 20 | 94 | 8.0 | 25.7 | 0.00 | 0.00 | 0.00 | 60 | 1010.8 |
| 20260506012823 | 21 | 134 | 8.0 | 20.9 | 0.00 | 0.00 | 0.00 | 60 | 1010.8 |
| 20260506012317 | 21 | 140 | 6.4 | 20.9 | 0.00 | 0.00 | 0.00 | 59 | 1010.7 |
| 20260506011811 | 21 | 126 | 8.0 | 19.3 | 0.00 | 0.00 | 0.00 | 59 | 1010.7 |
| 20260506011300 | 21 | 109 | 8.0 | 20.9 | 0.00 | 0.00 | 0.00 | 58 | 1010.6 |
| 20260506011019 | 21 | 106 | 9.7 | 20.9 | 0.00 | 0.00 | 0.00 | 58 | 1010.4 |
| 20260506010730 | 21 | 167 | 9.7 | 19.3 | 0.00 | 0.00 | 0.00 | 57 | 1010.5 |
| 20260506005738 | 21 | 126 | 8.0 | 19.3 | 0.00 | 0.00 | 0.00 | 57 | 1010.4 |
| 20260506005232 | 21 | 144 | 9.7 | 24.1 | 0.00 | 0.00 | 0.00 | 57 | 1010.4 |
| 20260506004948 | 21 | 118 | 9.7 | 24.1 | 0.00 | 0.00 | 0.00 | 56 | 1010.3 |
| 20260506004217 | 22 | 96 | 9.7 | 25.7 | 0.00 | 0.00 | 0.00 | 55 | 1010.4 |
| 20260506003710 | 22 | 112 | 11.3 | 25.7 | 0.00 | 0.00 | 0.00 | 54 | 1010.2 |
| 20260506003204 | 22 | 150 | 9.7 | 24.1 | 0.00 | 0.00 | 0.00 | 54 | 1010.1 |
| 20260506002921 | 22 | 147 | 9.7 | 22.5 | 0.00 | 0.00 | 0.00 | 54 | 1010.1 |
| 20260506002149 | 22 | 130 | 9.7 | 22.5 | 0.00 | 0.00 | 0.00 | 53 | 1010.1 |
| 20260506001642 | 22 | 92 | 8.0 | 17.7 | 0.00 | 0.00 | 0.00 | 53 | 1010.0 |
| 20260506001133 | 22 | 177 | 8.0 | 19.3 | 0.00 | 0.00 | 0.00 | 52 | 1010.0 |
| 20260506000626 | 22 | 126 | 8.0 | 25.7 | 0.00 | 0.00 | 0.00 | 51 | 1009.9 |
| 20260506000344 | 22 | 113 | 8.0 | 25.7 | 0.00 | 0.00 | 0.00 | 51 | 1009.9 |
| 20260505235611 | 22 | 144 | 6.4 | 20.9 | 0.00 | 0.00 | 0.00 | 52 | 1009.7 |
| 20260505235104 | 23 | 105 | 8.0 | 20.9 | 0.00 | 0.00 | 0.00 | 50 | 1009.7 |
| 20260505234558 | 23 | 115 | 9.7 | 25.7 | 0.00 | 0.00 | 0.00 | 50 | 1009.6 |
| 20260505234048 | 23 | 108 | 11.3 | 25.7 | 0.00 | 0.00 | 0.00 | 49 | 1009.7 |
| 20260505233543 | 23 | 168 | 11.3 | 27.4 | 0.00 | 0.00 | 0.00 | 49 | 1009.4 |
| 20260505233036 | 23 | 147 | 11.3 | 27.4 | 0.00 | 0.00 | 0.00 | 49 | 1009.6 |
| 20260505232527 | 23 | 163 | 11.3 | 24.1 | 0.00 | 0.00 | 0.00 | 50 | 1009.6 |
| 20260505232025 | 23 | 170 | 11.3 | 25.7 | 0.00 | 0.00 | 0.00 | 49 | 1009.7 |